Temperature
8 6 6 7 7 8 8 8 8 8 8 7 6 6 5 5 5 4 4 4 4 5 5 5 5 4 4 4 4 4 4 4 4 3 3 4 4 3 3 3 3 3 3 3
7 6 7 8 7 8 8 8 8 7 7 7 6 5 5 5 4 5 4 4 4 4 4 4 4 4 4 4 4 4 4 3 3 3 3 3 3 3 3 3 3 3 3 3
7 7 7 8 7 8 8 7 7 7 7 7 6 6 5 5 5 5 5 5 4 4 4 4 4 4 4 4 4 3 3 3 3 3 2 2 2 2 2 2 2 2 2 2
6 7 7 7 7 7 7 7 7 6 6 5 6 5 6 5 4 4 4 4 4 4 4 4 4 4 4 3 3 3 3 3 2 2 2 2 2 2 2 2 2 2 2 1
6 6 6 7 7 7 7 7 7 6 5 5 5 5 5 4 4 4 3 4 4 4 4 4 4 4 3 3 3 3 2 2 2 2 2 1 1 1 1 1 1 1 1 1
6 6 6 6 6 7 6 6 5 4 4 5 5 4 5 4 4 4 3 4 4 4 4 4 4 3 3 3 2 2 2 2 1 1 1 1 1 1 1 1 1 1 1 0
6 6 6 6 6 6 6 5 5 5 4 5 4 4 4 4 3 3 3 3 4 4 3 3 3 3 3 2 2 2 1 1 1 1 1 0 0 0 -0 -0 -0 -0 -0 -0
6 5 5 5 5 5 5 5 6 6 5 4 4 3 4 3 3 3 4 3 3 3 3 3 3 3 2 2 2 1 1 1 0 0 0 -0 -0 -1 -1 -1 -1 -1 -1 -1
5 5 4 5 5 5 4 4 5 4 4 4 4 3 3 3 2 2 2 2 2 2 3 3 3 2 2 2 1 1 1 0 -0 -0 -1 -1 -1 -1 -1 -1 -2 -2 -2 -2
5 5 4 4 5 5 4 4 3 4 5 5 4 3 3 3 2 1 1 1 2 2 2 2 2 2 1 1 1 0 -0 -0 -1 -1 -1 -1 -2 -2 -2 -2 -2 -2 -2 -2
4 4 4 3 3 4 4 4 3 3 3 4 4 4 3 2 2 1 1 1 1 2 2 1 1 1 1 0 -0 -0 -1 -1 -1 -1 -2 -2 -2 -2 -2 -2 -3 -3 -3 -3
3 3 3 3 3 3 3 3 3 3 3 2 2 3 2 1 1 1 1 1 1 1 1 1 1 0 -0 -0 -1 -1 -1 -1 -2 -2 -2 -2 -3 -3 -3 -3 -3 -3 -4 -4
3 2 3 4 3 2 2 2 2 2 2 1 2 3 1 0 0 1 1 1 1 1 0 0 -0 -0 -1 -1 -1 -1 -2 -2 -2 -2 -3 -3 -3 -3 -3 -4 -4 -4 -4 -4
3 2 3 4 4 2 2 2 2 2 1 1 1 2 1 1 -0 0 0 0 0 0 -0 -0 -1 -1 -1 -2 -2 -2 -2 -2 -3 -3 -3 -3 -4 -4 -4 -4 -4 -5 -5 -5
2 2 2 2 2 2 2 2 2 2 1 2 2 1 1 1 -0 -0 -0 -0 -1 -1 -1 -1 -1 -2 -2 -2 -2 -3 -3 -3 -3 -4 -4 -4 -4 -4 -5 -5 -5 -5 -5 -6
1 1 1 1 2 1 1 1 1 1 1 1 1 1 0 -0 -0 -1 -1 -1 -1 -1 -1 -2 -2 -2 -2 -3 -3 -3 -3 -4 -4 -4 -4 -5 -5 -5 -5 -6 -6 -6 -6 -6
-1 -0 1 1 1 1 1 1 1 0 -0 0 1 0 -2 -2 -2 -2 -2 -2 -2 -2 -2 -2 -2 -3 -3 -3 -4 -4 -4 -4 -5 -5 -5 -5 -5 -6 -6 -6 -6 -6 -7 -7
-1 -0 -1 -0 0 1 2 -0 -0 -0 -1 -1 -1 -2 -2 -2 -2 -2 -2 -2 -2 -2 -3 -3 -3 -3 -4 -4 -4 -4 -5 -5 -5 -5 -6 -6 -6 -6 -6 -7 -7 -7 -7 -7
-1 -1 -1 -1 -1 -0 0 -0 -1 -1 -1 -2 -3 -3 -3 -3 -3 -3 -2 -2 -3 -3 -3 -4 -4 -4 -4 -5 -5 -5 -5 -6 -6 -6 -6 -7 -7 -7 -7 -7 -7 -8 -8 -8
-2 -2 -2 -2 -1 0 1 -1 -1 -1 -1 -2 -3 -3 -4 -3 -4 -4 -4 -3 -4 -4 -4 -4 -5 -5 -5 -5 -6 -6 -6 -6 -7 -7 -7 -7 -8 -8 -8 -8 -8 -8 -8 -8
-2 -2 -2 -2 -2 -1 -2 -2 -1 -1 -1 -2 -2 -3 -3 -4 -4 -4 -4 -4 -4 -5 -5 -5 -5 -5 -6 -6 -6 -6 -7 -7 -7 -7 -8 -8 -8 -8 -8 -9 -9 -9 -9 -9
-3 -3 -3 -3 -2 -2 -3 -3 -2 -2 -2 -2 -2 -3 -3 -4 -4 -5 -5 -5 -5 -5 -5 -6 -6 -6 -6 -7 -7 -7 -7 -7 -8 -8 -8 -8 -8 -9 -9 -9 -9 -9 -9 -9
-4 -3 -4 -3 -2 -3 -4 -3 -3 -2 -3 -3 -3 -3 -4 -5 -5 -6 -6 -6 -6 -6 -6 -6 -7 -7 -7 -7 -8 -8 -8 -8 -8 -8 -9 -9 -9 -9 -9 -10 -10 -10 -10 -10
-5 -5 -5 -5 -5 -4 -4 -4 -3 -3 -3 -3 -3 -4 -4 -5 -6 -6 -6 -6 -7 -7 -7 -7 -7 -7 -7 -8 -8 -8 -8 -9 -9 -9 -9 -9 -10 -10 -10 -10 -10 -11 -11 -11
-5 -6 -5 -5 -5 -5 -5 -4 -4 -4 -4 -4 -4 -5 -5 -5 -6 -6 -7 -7 -7 -7 -7 -8 -8 -8 -8 -8 -8 -9 -9 -9 -9 -9 -10 -10 -10 -10 -10 -11 -11 -11 -11 -12
-7 -6 -6 -4 -5 -6 -5 -5 -5 -5 -5 -5 -5 -6 -6 -6 -6 -7 -7 -8 -8 -8 -8 -8 -8 -9 -9 -9 -9 -9 -9 -10 -10 -10 -10 -10 -11 -11 -11 -11 -11 -12 -12 -12
Wind_Speed
2 4 6 9 9 5 5 5 5 5 4 5 8 9 9 7 8 9 9 9 9 9 6 7 7 7 6 6 6 6 6 5 4 3 2 2 1 2 3 5 7 7 8 8
3 5 8 5 4 4 4 4 3 2 1 5 5 8 7 9 10 11 12 12 11 8 7 7 7 7 6 6 6 6 5 5 4 3 2 1 1 1 2 4 6 7 7 7
7 5 4 5 5 6 6 7 6 4 2 1 1 6 5 5 6 7 9 10 10 12 11 10 9 7 7 7 6 6 5 4 4 3 3 3 2 2 2 2 3 5 6 7
3 3 2 4 6 7 7 5 5 4 2 4 3 4 6 4 5 8 9 9 11 10 10 10 10 9 8 7 6 6 5 4 4 4 4 4 2 1 0 0 1 3 5 6
3 2 3 5 6 7 5 3 3 3 3 1 2 3 7 2 6 9 10 11 10 10 11 11 11 10 8 7 6 6 6 5 4 4 4 3 2 1 1 1 1 2 4 5
2 1 2 4 1 3 4 4 5 4 3 3 5 6 6 4 6 5 6 8 9 9 9 9 8 7 6 6 6 6 6 5 4 4 3 3 3 2 2 1 1 1 2 3
1 1 1 2 3 2 4 5 2 2 1 6 3 5 7 5 4 4 6 7 8 8 9 9 9 9 8 7 7 6 7 5 4 4 3 3 3 3 3 1 0 1 2 2
3 4 3 2 4 5 5 6 6 5 5 4 2 6 6 3 2 1 3 5 6 7 8 9 9 9 9 8 8 7 7 5 5 4 3 3 3 2 1 1 1 1 1 2
4 4 1 0 1 5 5 4 3 4 1 2 5 5 5 1 1 1 3 5 6 6 7 7 7 8 8 8 8 8 7 5 5 4 3 3 3 2 2 1 1 1 2 2
5 3 1 0 2 1 3 5 4 4 4 4 5 4 4 5 4 3 4 5 5 5 5 5 5 6 6 6 6 6 6 6 4 4 4 3 2 2 2 1 1 1 2 3
3 3 1 0 5 6 4 3 4 4 3 5 4 6 4 6 6 6 5 5 5 5 5 4 4 4 4 4 5 5 5 5 4 4 4 3 2 2 1 1 1 2 2 3
3 3 3 5 2 2 5 6 6 5 5 4 3 6 3 3 3 5 5 4 4 4 4 4 4 4 4 4 4 5 5 5 4 4 4 3 2 2 1 1 2 2 2 3
4 4 1 2 1 1 3 4 5 3 3 4 5 6 2 2 2 2 4 3 3 3 3 3 4 4 4 3 3 4 4 4 4 4 4 3 2 2 2 2 2 2 2 3
3 3 5 7 4 5 4 4 6 6 5 5 8 7 4 2 2 2 2 3 3 3 3 4 3 3 3 3 3 3 3 3 3 3 3 3 3 3 2 2 2 2 3 3
3 3 3 4 2 2 4 6 8 9 9 9 8 8 9 7 6 4 3 3 3 2 3 3 3 3 3 2 2 2 2 2 3 3 3 2 2 2 2 2 2 2 3 3
2 2 1 3 2 1 4 6 8 9 8 9 7 9 6 2 3 3 4 4 4 3 2 3 3 3 3 3 2 2 1 1 2 3 2 2 2 1 2 2 2 3 3 3
2 3 2 3 2 2 6 8 9 6 6 8 11 9 3 3 4 5 4 4 4 3 2 2 2 3 3 2 2 2 2 1 2 2 1 1 1 2 2 3 2 3 3 3
4 3 2 1 1 5 6 1 5 6 4 5 4 2 4 4 2 2 2 4 3 2 2 2 2 2 2 2 2 2 2 2 1 1 0 1 1 2 2 2 3 3 3 4
4 5 3 2 3 6 6 2 3 5 4 4 6 4 2 4 4 2 1 2 3 3 2 2 2 2 2 2 2 3 2 2 2 1 1 2 2 2 2 3 4 3 3 4
2 3 3 3 4 6 5 1 1 3 3 3 6 6 5 5 2 3 1 3 3 3 3 3 3 3 3 2 3 4 2 2 1 1 2 2 2 2 3 4 4 4 4 5
1 2 4 5 5 6 4 2 2 4 5 2 5 5 5 4 4 3 4 3 4 4 4 4 4 3 2 2 3 3 2 0 1 2 2 2 3 3 3 3 3 4 4 5
5 5 5 4 5 7 2 2 4 4 0 2 3 3 4 4 4 4 4 4 4 4 4 3 3 2 2 2 3 2 0 1 1 2 2 3 3 3 3 3 4 4 4 4
5 5 4 6 6 2 2 2 1 1 1 1 2 3 5 5 4 5 4 4 3 3 3 2 3 2 2 1 2 1 1 1 1 2 2 3 3 3 3 4 4 4 3 4
2 1 2 3 4 2 1 1 2 1 1 1 2 3 4 4 5 4 4 3 3 2 2 2 2 2 1 1 1 0 1 1 1 1 2 3 3 4 4 3 4 4 4 4
3 2 2 3 3 1 2 1 1 2 3 3 3 3 4 5 4 4 3 3 3 2 1 2 2 1 1 1 1 1 1 0 1 2 2 3 3 4 4 4 3 5 4 6
2 3 4 5 4 3 2 1 1 2 2 3 3 3 3 4 4 4 3 2 2 2 1 1 1 0 1 1 2 2 1 1 1 2 3 2 3 3 3 4 5 8 8 11
Wind_Direction
140 124 196 207 202 197 178 187 219 231 189 183 218 239 238 211 197 198 195 192 194 197 183 165 161 154 150 150 148 147 143 142 129 121 111 94 67 49 43 47 45 40 36 38
90 220 224 200 197 204 202 213 234 282 196 198 234 253 243 213 205 202 199 198 196 188 173 171 166 162 160 158 156 154 153 152 148 142 137 129 132 81 43 41 39 38 37 36
182 220 207 180 189 202 219 210 218 227 329 243 279 287 245 231 208 206 202 196 192 190 184 178 174 172 166 165 167 162 160 153 144 128 111 96 74 55 39 27 24 27 32 31
208 254 182 184 206 194 227 210 194 189 170 255 191 268 269 227 222 217 210 198 196 192 184 180 177 175 175 176 167 158 154 146 139 131 135 134 129 129 198 1 5 13 25 26
221 203 191 203 214 191 203 168 161 174 170 276 227 214 279 242 235 231 215 204 200 191 183 181 181 178 173 166 162 157 150 146 139 137 142 136 130 132 97 51 30 12 11 17
210 203 195 207 206 172 132 79 67 59 88 256 213 192 269 232 228 235 212 200 194 186 180 178 172 162 162 159 157 155 152 152 149 147 146 149 150 141 116 66 29 353 350 358
276 259 250 131 115 82 110 108 65 340 283 248 193 196 247 252 239 220 202 194 186 176 171 170 167 168 169 166 165 162 161 161 160 157 158 162 165 162 167 178 209 308 328 331
199 254 222 187 170 174 180 157 167 204 225 263 217 224 252 275 273 233 174 165 161 169 171 175 177 175 175 173 170 168 170 167 167 167 169 165 164 163 174 181 205 251 278 292
191 236 1 188 137 144 151 194 171 141 163 256 253 267 299 282 357 116 141 147 166 173 174 176 177 177 178 177 177 176 172 171 174 173 166 166 167 163 175 186 205 258 286 308
168 217 250 333 69 39 153 151 123 148 182 241 270 257 247 238 225 204 185 182 185 172 170 172 174 178 179 177 172 166 167 174 174 172 176 177 172 173 172 171 227 264 292 309
150 174 237 155 198 193 158 161 162 157 178 185 245 264 235 216 203 196 200 191 182 177 176 173 170 163 158 155 156 163 169 168 172 175 173 170 177 177 172 200 241 265 291 305
154 146 216 236 240 215 183 183 160 173 220 199 204 265 302 208 193 180 182 177 168 167 166 163 158 145 143 154 167 175 177 178 181 176 170 174 176 174 190 229 254 273 282 293
143 142 149 324 308 283 215 202 183 153 144 180 198 255 340 78 102 146 162 165 160 153 151 148 149 157 165 168 170 178 181 184 180 172 170 176 184 194 218 243 265 276 281 292
129 165 194 210 218 178 201 206 180 161 190 216 222 236 265 225 198 202 182 174 165 168 164 159 162 169 170 166 167 169 179 179 174 170 174 186 198 210 227 245 268 275 279 282
115 199 219 255 273 181 211 217 193 197 204 211 226 223 241 227 207 198 183 168 163 174 169 168 170 170 164 160 162 163 170 174 173 167 177 200 209 212 229 255 268 279 286 289
122 198 226 274 268 224 269 252 221 221 221 226 243 258 253 219 149 165 180 178 183 195 194 179 167 162 168 175 174 163 171 172 158 165 188 209 210 227 249 261 267 277 283 288
176 161 182 256 305 359 270 239 210 206 210 203 228 237 167 164 186 188 184 174 181 193 183 171 168 170 175 177 166 162 166 143 140 159 194 218 227 248 262 275 283 283 283 287
179 172 181 227 82 237 246 207 186 194 227 207 201 187 172 182 168 138 153 165 171 161 147 138 133 128 119 119 122 115 107 111 110 94 292 268 261 267 281 285 284 284 283 282
190 172 174 179 224 268 286 246 172 183 252 215 196 195 145 100 73 15 21 133 147 148 144 134 122 111 103 108 115 104 87 83 74 17 324 309 293 283 288 290 289 287 288 288
83 138 163 175 204 238 257 269 241 127 268 229 175 183 167 136 171 242 146 104 105 103 105 100 91 88 88 90 104 103 91 73 22 322 314 316 310 298 290 286 289 288 287 288
147 166 195 206 228 260 278 291 116 168 249 188 171 177 169 182 201 158 128 111 109 104 100 97 92 84 79 90 104 105 93 7 311 329 333 331 321 305 291 290 292 293 297 301
182 180 197 183 210 253 274 125 172 213 115 132 145 151 143 139 129 132 128 121 112 103 98 101 100 80 59 84 110 109 31 309 330 345 344 332 320 312 313 302 301 301 298 299
196 195 193 194 214 264 180 182 197 120 134 141 139 141 138 138 142 136 128 125 118 114 113 111 114 90 53 64 118 138 300 322 346 349 330 321 322 320 318 310 304 304 299 294
248 201 182 232 263 266 273 313 352 26 154 145 140 143 140 145 147 141 138 131 125 120 123 116 108 94 27 13 43 237 297 342 356 320 313 316 319 319 318 311 306 302 295 292
238 180 201 242 262 318 311 296 315 39 68 81 83 103 131 139 146 152 148 147 144 136 125 119 123 138 294 328 327 322 334 4 319 305 304 310 312 306 308 307 295 298 281 283
224 197 205 235 227 212 257 312 88 106 98 108 103 89 98 131 148 147 149 153 145 141 128 122 139 175 292 315 310 310 306 285 279 298 299 295 298 299 301 303 308 310 308 309
Height
1498 1504 1506 1505 1505 1505 1507 1509 1511 1509 1508 1512 1513 1511 1509 1509 1511 1511 1512 1513 1515 1516 1519 1521 1523 1525 1527 1528 1530 1530 1532 1532 1533 1533 1533 1533 1533 1533 1533 1533 1532 1532 1531 1530
1502 1504 1500 1501 1504 1505 1506 1509 1510 1510 1508 1511 1512 1510 1506 1506 1505 1506 1507 1509 1511 1514 1516 1518 1520 1522 1524 1525 1527 1528 1529 1530 1531 1531 1532 1532 1532 1531 1531 1531 1531 1530 1529 1528
1499 1499 1498 1501 1503 1504 1505 1507 1509 1511 1510 1510 1512 1509 1505 1502 1502 1503 1504 1505 1507 1509 1511 1514 1516 1518 1520 1522 1524 1525 1527 1528 1529 1529 1530 1530 1530 1529 1529 1529 1529 1528 1528 1527
1500 1498 1498 1499 1501 1502 1504 1503 1505 1509 1514 1516 1513 1516 1503 1500 1500 1499 1500 1501 1503 1505 1507 1510 1512 1515 1517 1519 1522 1523 1524 1525 1526 1527 1527 1527 1527 1527 1527 1527 1527 1526 1526 1525
1498 1497 1498 1498 1498 1499 1501 1501 1504 1507 1512 1517 1515 1517 1505 1500 1499 1496 1495 1496 1498 1501 1504 1506 1509 1512 1514 1517 1519 1521 1522 1523 1524 1525 1525 1525 1525 1525 1525 1525 1524 1524 1523 1523
1497 1496 1497 1496 1497 1498 1500 1504 1507 1513 1517 1517 1511 1515 1504 1500 1494 1492 1492 1493 1495 1498 1501 1504 1507 1510 1512 1514 1516 1518 1519 1520 1521 1522 1523 1523 1523 1523 1522 1522 1522 1521 1521 1520
1497 1497 1496 1496 1498 1499 1501 1508 1513 1514 1519 1513 1508 1510 1502 1493 1491 1490 1489 1490 1492 1495 1498 1501 1504 1507 1509 1511 1513 1515 1516 1517 1519 1520 1520 1521 1521 1521 1520 1520 1519 1519 1518 1517
1497 1498 1496 1495 1496 1499 1501 1503 1509 1512 1513 1512 1509 1508 1497 1491 1489 1488 1488 1489 1491 1494 1496 1499 1501 1504 1506 1508 1510 1512 1513 1515 1516 1517 1518 1518 1518 1518 1518 1517 1517 1516 1515 1515
1496 1495 1495 1494 1494 1496 1501 1504 1503 1510 1514 1515 1508 1503 1495 1490 1489 1488 1489 1489 1490 1492 1495 1497 1499 1502 1504 1506 1507 1509 1511 1512 1513 1514 1515 1515 1515 1515 1515 1515 1514 1514 1513 1512
1492 1496 1496 1496 1495 1496 1497 1500 1507 1509 1508 1508 1503 1503 1497 1490 1489 1489 1489 1489 1490 1492 1494 1496 1498 1500 1502 1503 1505 1507 1508 1509 1511 1511 1512 1512 1512 1512 1512 1512 1511 1510 1510 1508
1491 1496 1498 1497 1497 1496 1499 1500 1502 1507 1507 1509 1507 1499 1488 1487 1486 1487 1488 1489 1490 1491 1493 1495 1497 1498 1500 1501 1503 1504 1505 1507 1508 1508 1509 1509 1509 1509 1509 1508 1508 1507 1506 1505
1490 1496 1498 1496 1494 1494 1494 1495 1499 1503 1506 1509 1510 1500 1486 1485 1484 1485 1487 1488 1489 1491 1492 1494 1495 1497 1498 1499 1500 1501 1502 1503 1504 1505 1506 1506 1506 1506 1506 1505 1505 1504 1503 1501
1489 1495 1497 1494 1497 1496 1494 1494 1495 1498 1502 1507 1508 1497 1486 1485 1485 1486 1486 1487 1489 1490 1491 1493 1494 1494 1495 1496 1497 1498 1499 1500 1501 1502 1502 1503 1503 1502 1502 1502 1501 1500 1499 1498
1486 1492 1492 1488 1485 1489 1492 1492 1492 1496 1501 1503 1498 1491 1487 1486 1486 1486 1486 1487 1488 1489 1490 1491 1492 1492 1493 1494 1495 1496 1497 1498 1498 1499 1499 1499 1499 1499 1498 1498 1497 1496 1495 1493
1487 1490 1490 1487 1486 1487 1487 1487 1488 1490 1490 1492 1488 1488 1483 1482 1483 1484 1485 1486 1487 1487 1488 1489 1490 1490 1491 1492 1493 1493 1494 1495 1495 1495 1495 1496 1496 1495 1495 1494 1493 1492 1491 1489
1488 1490 1490 1489 1486 1486 1486 1484 1485 1486 1486 1486 1485 1484 1480 1480 1482 1483 1484 1484 1485 1485 1486 1487 1487 1488 1489 1490 1490 1491 1491 1492 1492 1492 1492 1492 1492 1492 1491 1490 1489 1488 1487 1485
1489 1491 1491 1490 1488 1485 1486 1480 1481 1482 1481 1481 1480 1478 1479 1480 1480 1481 1481 1482 1483 1483 1484 1485 1485 1486 1487 1487 1488 1488 1488 1489 1489 1489 1489 1489 1488 1488 1487 1486 1485 1484 1482 1481
1488 1489 1492 1493 1491 1489 1477 1475 1475 1476 1477 1477 1476 1476 1477 1477 1478 1479 1480 1480 1481 1481 1482 1483 1483 1484 1485 1485 1486 1486 1486 1486 1486 1486 1486 1485 1485 1484 1483 1482 1481 1480 1478 1477
1484 1487 1492 1494 1493 1485 1477 1474 1475 1477 1477 1474 1475 1475 1476 1477 1478 1479 1479 1480 1480 1480 1481 1482 1482 1482 1483 1483 1483 1484 1484 1483 1483 1483 1483 1482 1481 1480 1479 1478 1477 1476 1474 1472
1484 1486 1491 1494 1491 1484 1474 1473 1472 1475 1477 1472 1472 1473 1475 1476 1480 1479 1478 1479 1479 1480 1480 1480 1480 1481 1481 1481 1481 1481 1481 1481 1481 1480 1480 1479 1478 1477 1475 1474 1473 1472 1470 1468
1487 1489 1491 1492 1490 1482 1475 1473 1473 1478 1473 1470 1469 1471 1472 1474 1475 1476 1476 1477 1478 1478 1479 1479 1479 1479 1479 1479 1479 1479 1479 1478 1478 1477 1477 1476 1474 1473 1472 1471 1469 1468 1466 1464
1484 1487 1489 1489 1490 1482 1473 1472 1474 1472 1469 1468 1468 1469 1470 1471 1472 1473 1474 1475 1476 1477 1477 1478 1478 1478 1478 1478 1478 1477 1476 1476 1476 1475 1474 1472 1471 1470 1468 1467 1465 1464 1462 1459
1481 1480 1480 1480 1478 1472 1470 1469 1469 1468 1468 1468 1468 1469 1469 1470 1471 1472 1473 1474 1475 1475 1476 1476 1476 1476 1476 1476 1476 1475 1474 1474 1473 1472 1471 1469 1468 1466 1465 1463 1461 1459 1457 1455
1477 1476 1477 1476 1472 1470 1469 1468 1467 1467 1467 1467 1467 1468 1468 1468 1469 1470 1472 1473 1473 1474 1474 1475 1475 1475 1474 1474 1474 1473 1472 1471 1470 1469 1468 1466 1465 1463 1462 1460 1458 1455 1453 1451
1475 1475 1475 1473 1470 1469 1467 1467 1466 1466 1466 1466 1466 1467 1467 1468 1468 1469 1470 1471 1472 1472 1473 1473 1473 1473 1472 1472 1471 1471 1470 1469 1467 1466 1465 1463 1462 1460 1458 1456 1454 1452 1450 1448
1472 1473 1472 1468 1466 1467 1466 1465 1465 1465 1464 1465 1465 1466 1467 1467 1467 1468 1469 1469 1470 1470 1471 1471 1471 1471 1470 1470 1469 1468 1467 1466 1465 1463 1462 1460 1458 1456 1454 1452 1450 1448 1446 1444